Weather in Bilituy

Russia / Zabaykalsky Krai     49°49′34″N   117°05′35″E
temp.,
°C
wind,
m/s
gust,
m/s
humid.,
%
clouds,
%
prec.,
mm/h
press.,
hPa
HPBL,
m
28 june, tue
tue2800:00+19nw22490 0.0 100312
03:00+18n22510 0.0 100212
06:00+18nnw33570 0.0 100227
09:00+24nnw33400 0.0 1002442
12:00+28n23290 0.0 10012370
15:00+31w342430 0.0 9993265
18:00+31wnw552560 0.0 9982947
21:00+26nw233712 0.0 99921
29 june, wed
wed2900:00+22n22460 0.0 100112
03:00+20nne22510 0.0 100213
06:00+19n22550 0.0 100317
09:00+27nne34392 0.0 1003407
12:00+31ne342822 0.0 10023105
15:00+33e342375 0.0 10013243
18:00+28n3533100 0.0 1002110
21:00+27ese343812 0.0 100266
30 june, thu
thu3000:00+23se22447 0.0 100411
03:00+24e114293 0.0 100411
06:00+22se11495 0.0 100511
09:00+28se33395 0.0 1006439
12:00+32se43315 0.0 10051728
15:00+32se432899 0.0 10032689
18:00+30e4535100 0.1 10031110
21:00+25ese344784 0.1 100478
1 july, fri
fri100:00+24se3851100 0.0 1005185
03:00+21ese485947 0.0 1005131
06:00+21se22596 0.0 100613
09:00+28sse343921 0.0 1005461
12:00+32sse543164 0.0 10041337
15:00+34s55265 0.0 10032573
18:00+33ssw882818 0.0 10011240
21:00+25ssw334461 0.5 100333
2 july, sat
sat200:00+23sw385340 0.2 1004141
03:00+20sse336170 0.4 100324
06:00+21s225715 0.0 100316
09:00+28sw34375 0.0 1002345
12:00+34sw672512 0.0 10011599
15:00+36sw771970 0.0 9993708
18:00+36wsw771721 0.0 9973846
21:00+29s45321 0.0 99860